Other Public Products
Issued by NWS Charleston, SC

Current Version | Previous Version | Graphics & Text | Print | Product List | Glossary On
Versions: 1 2 3 4 5 6 7 8 9 10 11 12 13 14 15 16 17 18 19 20 21 22 23 24 25 26 27 28 29 30 31 32 33 34 35 36 37 38 39 40 41 42 43 44 45 46 47 48 49 50
144 FPUS82 KCHS 281012 OPUCHS TEST...KCHS/KSAV Gateway Observations...TEST National Weather Service Charleston SC 500 AM EST TUE FEB 28 2017 NOTE: "fair" indicates few or no clouds below 12,000 feet with no significant weather and/or obstructions to visibility. SCZ050-WAZ558-NCZ071-TXZ119-213-PAZ071-DCZ001-FLZ074-172-MI076- NYZ176-178-MAZ016-IL014-TNZ027-NJZ106-GAZ044-MD014-281100- ...Gateway Observations for Charleston International... CITY SKY/WX TMP DP RH WIND PRES REMARKS Chas Airport CLOUDY 62 60 93 S5 30.27R Seattle MOCLDY 34 33 96 NW3 29.82R Charlotte CLEAR 45 35 68 CALM 30.29S Dallas DFW CLOUDY 70 66 87 S14G24 29.84F Dallas Love CLOUDY 70 64 81 S14G23 29.87F Philladelphia CLOUDY 46 36 68 CALM 30.34S Wash National CLOUDY 49 36 61 CALM 30.32S Baltimore MOCLDY 43 36 76 CALM 30.32R Miami PTCLDY 75 69 81 E8 30.22R Detroit CLOUDY 38 36 92 E3 30.13F FOG Newark CLOUDY 46 32 58 CALM 30.35F Laguardia CLOUDY 46 35 65 E6 30.35F J F K CLOUDY 43 40 89 E3 30.37S Boston Logan CLOUDY 40 33 76 SW12 30.40R WCI 33 Ft. Lauderdale PTCLDY 75 70 84 SE13 30.21R Chicago O`Hare CLOUDY 49 45 86 S16 29.85F Chicago Midway CLOUDY 48 43 82 S15 29.88F Houston Bush LGT RAIN 73 70 90 S10 29.97R FOG Houston Hobby CLOUDY 72 70 93 S10 29.96F Nashville CLOUDY 55 50 83 S12 30.11F Atlanta MOCLDY 52 46 80 E6 30.27S $$ GAZ044-118-TXZ119-213-NCZ071-DCZ001-MDZ014-506-PAZ021-071-NJZ106- NYZ176-178-MAZ106-OHZ011-021-055-MIZ076-KYZ091-ILZ014-INZ047- MNZ060-ONZ431-281100- ...Gateway Observations for Savannah International... CITY SKY/WX TMP DP RH WIND PRES REMARKS Savannah Arpt CLOUDY 64 61 90 NE3 30.26S Atlanta MOCLDY 52 46 80 E6 30.27S Charlotte CLEAR 45 35 68 CALM 30.29S Dallas DFW CLOUDY 70 66 87 S14G24 29.84F Houston Bush LGT RAIN 73 70 90 S10 29.97R FOG Wash National CLOUDY 49 36 61 CALM 30.32S Wash Dulles CLOUDY 39 33 79 SE3 30.31S Baltimore MOCLDY 43 36 76 CALM 30.32R Philadelphia CLOUDY 46 36 68 CALM 30.34S Newark CLOUDY 46 32 58 CALM 30.35F Laguardia CLOUDY 46 35 65 E6 30.35F J F K CLOUDY 43 40 89 E3 30.37S Boston CLOUDY 40 33 76 SW12 30.40R WCI 33 Pittsburg CLOUDY 38 37 97 SE3 30.19F Akron CLOUDY 38 34 85 SE10 30.15F WCI 31 Cleveland CLOUDY 42 36 79 SE8 30.17F Cincinnati CLOUDY 44 41 89 S9 30.10R Columbus PTCLDY 37 36 97 S3 30.13S Detroit CLOUDY 38 36 92 E3 30.13F FOG Chicago O`Hare CLOUDY 49 45 86 S16 29.85F Minneapolis CLOUDY 37 29 72 E5 29.73F WCI 33 Indianapolis LGT RAIN 45 42 89 SE10 30.01F Toronto Canada PTCLDY 36 30 80 E3 30.23F $$

USA.gov is the U.S. government's official web portal to all federal, state and local government web resources and services.